Owatonna, MN

2:56 PM CDT on June 27, 2017 (GMT -0500)
Owatonna Degner Regional

Weather History for KOWA - October, 2012

Change the Weather History Date:

Tuesday, October 23, 2012

  Actual Average Record
Temperature  
Mean Temperature 64 °F -  
Max Temperature 69 °F 58 °F 81 °F (1963)
Min Temperature 60 °F 37 °F 20 °F (1981)
Growing Degree Days 14 (Base 50)    
Moisture  
Dew Point 57 °F    
Average Humidity 75    
Maximum Humidity 83    
Minimum Humidity 64    
Precipitation  
Precipitation 0.02 in - - ()
Sea Level Pressure  
Sea Level Pressure 29.75 in    
Wind  
Wind Speed 9 mph (SSE)    
Max Wind Speed 15 mph    
Max Gust Speed 17 mph    
Visibility 4 miles    
Events Rain , Thunderstorm    
Averages and records for this station are not official NWS values.
T = Trace of Precipitation, MM = Missing Value Source: NWS Daily Summary

Daily Weather History Graph

Daily Weather History Graph

Search for Another Location

Airport or City:

Trip Planner

Search our weather history database for the weather conditions in past years. The results will help you decide how hot, cold, wet, or windy it might be!

Date:

Astronomy

Oct. 23, 2012 Rise Set
Actual Time 7:38 AM CDT 6:15 PM CDT
Civil Twilight 7:09 AM CDT 6:44 PM CDT
Nautical Twilight 6:35 AM CDT 7:18 PM CDT
Astronomical Twilight 6:01 AM CDT 7:51 PM CDT
Moon 3:10 PM CDT (10/23) 1:18 AM CDT (10/23)
Length of Visible Light 11h 35m
Length of Day
10h 36m
Waxing Gibbous, 67% of the Moon is Illuminated
Oct 23
Waxing Gibbous
Oct 29
Full
Nov 6
Last Quarter
Nov 13
New
Nov 20
First Quarter

Hourly Weather History & Observations

Time (CDT) Temp. Dew Point Humidity Pressure Visibility Wind Dir Wind Speed Gust Speed Precip Events Conditions
12:34 AM 60.8 °F 53.6 °F 77% 29.82 in 7.0 mi East 11.5 mph - N/A   Overcast
1:14 AM 60.8 °F 53.6 °F 77% 29.81 in 5.0 mi East 9.2 mph - N/A   Haze
2:34 AM 60.8 °F 53.6 °F 77% 29.80 in 2.5 mi East 10.4 mph - N/A   Haze
2:54 AM 60.8 °F 53.6 °F 77% 29.79 in 2.5 mi East 9.2 mph - N/A   Haze
3:14 AM 60.8 °F 55.4 °F 82% 29.78 in 1.8 mi East 12.7 mph - N/A Thunderstorm Haze
3:33 AM 60.8 °F 55.4 °F 82% 29.77 in 1.5 mi ESE 9.2 mph - N/A Thunderstorm Haze
3:54 AM 60.8 °F 55.4 °F 82% 29.76 in 2.0 mi East 10.4 mph - 0.02 in Rain Light Rain
4:13 AM 60.8 °F 55.4 °F 82% 29.76 in 1.8 mi East 12.7 mph - N/A Rain Light Rain
4:33 AM 60.8 °F 55.4 °F 82% 29.76 in 1.8 mi ESE 13.8 mph - N/A Rain Light Rain
5:14 AM 60.8 °F 55.4 °F 82% 29.76 in 2.0 mi ESE 9.2 mph - N/A   Haze
5:53 AM 62.6 °F 55.4 °F 77% 29.76 in 2.0 mi ESE 11.5 mph - N/A Rain Light Rain
6:33 AM 62.6 °F 55.4 °F 77% 29.75 in 2.5 mi ESE 10.4 mph - N/A   Haze
7:14 AM 62.6 °F 57.2 °F 82% 29.74 in 3.0 mi ESE 9.2 mph - N/A   Haze
8:53 AM 64.4 °F 57.2 °F 77% 29.76 in 2.5 mi SE 6.9 mph - N/A   Haze
9:34 AM 66.2 °F 57.2 °F 73% 29.76 in 4.0 mi South 8.1 mph - N/A   Haze
10:13 AM 64.4 °F 57.2 °F 77% 29.76 in 4.0 mi South 10.4 mph - N/A   Haze
10:34 AM 64.4 °F 55.4 °F 73% 29.75 in 4.0 mi South 6.9 mph - N/A   Haze
10:54 AM 66.2 °F 57.2 °F 73% 29.75 in 4.0 mi South 10.4 mph - N/A   Haze
11:14 AM 66.2 °F 57.2 °F 73% 29.75 in 4.0 mi South 10.4 mph - N/A   Haze
11:33 AM 66.2 °F 57.2 °F 73% 29.75 in 4.0 mi South 10.4 mph - N/A   Haze
11:53 AM 66.2 °F 57.2 °F 73% 29.75 in 5.0 mi South 13.8 mph - N/A   Haze
12:14 PM 66.2 °F 57.2 °F 73% 29.74 in 5.0 mi South 15.0 mph - N/A   Haze
12:34 PM 68.0 °F 57.2 °F 68% 29.74 in 5.0 mi South 13.8 mph - N/A   Haze
12:53 PM 68.0 °F 55.4 °F 64% 29.73 in 5.0 mi South 12.7 mph - N/A   Haze
1:34 PM 68.0 °F 55.4 °F 64% 29.71 in 5.0 mi South 13.8 mph - N/A   Haze
1:53 PM 68.0 °F 57.2 °F 68% 29.70 in 5.0 mi South 9.2 mph - N/A   Haze
2:13 PM 68.0 °F 57.2 °F 68% 29.70 in 5.0 mi South 10.4 mph 17.3 mph N/A   Haze
2:34 PM 68.0 °F 57.2 °F 68% 29.70 in 5.0 mi SSW 10.4 mph - N/A   Haze
2:53 PM 69.8 °F 57.2 °F 64% 29.69 in 5.0 mi South 8.1 mph - N/A   Haze
3:14 PM 69.8 °F 57.2 °F 64% 29.69 in 7.0 mi South 11.5 mph - N/A   Overcast
3:34 PM 69.8 °F 57.2 °F 64% 29.69 in 7.0 mi SSW 10.4 mph - N/A   Overcast
3:53 PM 69.8 °F 57.2 °F 64% 29.70 in 5.0 mi SW 9.2 mph - N/A   Haze
4:13 PM 68.0 °F 57.2 °F 68% 29.70 in 5.0 mi SW 10.4 mph - N/A   Haze
4:33 PM 68.0 °F 57.2 °F 68% 29.71 in 5.0 mi SW 8.1 mph - N/A   Haze
4:53 PM 68.0 °F 57.2 °F 68% 29.71 in 5.0 mi SW 5.8 mph - N/A   Haze
5:13 PM 66.2 °F 57.2 °F 73% 29.72 in 3.0 mi SSW 6.9 mph - N/A Rain Rain
5:33 PM 66.2 °F 57.2 °F 73% 29.72 in 4.0 mi SSW 3.5 mph - N/A   Haze
5:53 PM 66.2 °F 57.2 °F 73% 29.72 in 4.0 mi South 4.6 mph - N/A   Haze
6:13 PM 66.2 °F 57.2 °F 73% 29.72 in 5.0 mi SSE 3.5 mph - N/A   Haze
6:33 PM 66.2 °F 57.2 °F 73% 29.72 in 5.0 mi SSE 4.6 mph - N/A   Haze
6:54 PM 66.2 °F 57.2 °F 73% 29.73 in 5.0 mi Calm Calm - N/A   Haze
7:14 PM 64.4 °F 57.2 °F 77% 29.74 in 5.0 mi Calm Calm - N/A   Haze
7:34 PM 64.4 °F 57.2 °F 77% 29.76 in 5.0 mi Calm Calm - N/A   Haze
7:53 PM 64.4 °F 57.2 °F 77% 29.76 in 4.0 mi Calm Calm - N/A Rain Light Rain
8:13 PM 64.4 °F 57.2 °F 77% 29.75 in 5.0 mi Calm Calm - N/A   Haze
8:33 PM 64.4 °F 57.2 °F 77% 29.76 in 4.0 mi Calm Calm - N/A   Haze
8:54 PM 64.4 °F 57.2 °F 77% 29.75 in 4.0 mi Calm Calm - N/A   Haze
9:14 PM 64.4 °F 57.2 °F 77% 29.75 in 4.0 mi East 3.5 mph - N/A   Haze
9:34 PM 64.4 °F 57.2 °F 77% 29.76 in 4.0 mi Calm Calm - N/A   Haze
9:54 PM 64.4 °F 57.2 °F 77% 29.76 in 4.0 mi SE 4.6 mph - N/A   Haze
10:13 PM 66.2 °F 60.8 °F 83% 29.77 in 4.0 mi SE 4.6 mph - N/A   Haze
10:34 PM 66.2 °F 60.8 °F 83% 29.76 in 4.0 mi SE 4.6 mph - N/A   Haze
10:54 PM 66.2 °F 60.8 °F 83% 29.77 in 4.0 mi SE 4.6 mph - N/A   Haze
11:14 PM 66.2 °F 60.8 °F 83% 29.77 in 4.0 mi SSE 4.6 mph - N/A   Haze
11:34 PM 64.4 °F 59.0 °F 83% 29.78 in 3.0 mi Calm Calm - N/A   Haze
11:54 PM 64.4 °F 57.2 °F 77% 29.78 in 3.0 mi WNW 9.2 mph - N/A   Haze